Погода в Сечжоне

Южная Корея     36°30′43″N   127°14′29″E
темп.,
°C
ветер,
м/с
пор.,
м/с
влажн.,
%
обл.,
%
осадки,
мм/ч
давл.,
гПа
погр.,
м
12 апреля, пн
пн1200:00+13ююв1254100 0.0 102742
03:00+12юв1157100 0.0 102515
06:00+12всв1152100 0.0 102446
09:00+13юв1150100 0.0 102378
12:00+11в4858100 0.4 1021488
15:00+12вюв3867100 0.4 1016419
18:00+12вюв2979100 0.3 1013375
21:00+12ююв2488100 1.1 1012146
13 апреля, вт
вт1300:00+13ююз31295100 3.5 10111038
03:00+12юз51197100 3.9 1010721
06:00+11юз4896100 0.1 1011587
09:00+11зсз378356 0.4 1014612
12:00+16зсз6854100 0.0 10141280
15:00+14зсз694174 0.0 10141235
18:00+10зсз5944100 0.0 1016894
21:00+6з41057100 0.0 1019607
14 апреля, ср
ср1400:00+5з366099 0.0 1019240
03:00+4зюз24705 0.0 1019144
06:00+3зюз23730 0.0 1019120
09:00+10ссз36410 0.0 1020757
12:00+14ссз48240 0.0 10201777
15:00+15сз58190 0.0 10191841
18:00+13сз35280 0.0 1020773
21:00+7зюз23430 0.0 102176
15 апреля, чт
чт1500:00+6юз11450 0.0 102134
03:00+4ююз22535 0.0 102146
06:00+4ююв1165100 0.0 102113
09:00+10юз2349100 0.0 1021471
12:00+16юз113412 0.0 10201108
15:00+18ююз232640 0.0 10171858
18:00+16з45335 0.0 1017630
21:00+10юз2345100 0.0 1018118
16 апреля, пт
пт1600:00+8ююз2555100 0.0 1018170
03:00+7ююз265980 0.0 1019152
06:00+8ююз275789 0.0 1018243
09:00+13юз475444 0.0 1018718
12:00+18юз67470 0.0 10181420
15:00+18юз68470 0.0 10161532
18:00+15юз58610 0.0 1016803
21:00+11юз26790 0.0 1018210